User: anonymous   Login
Location: Unspecified
(0.0000°N, 0.0000°E)
Time: 12:39:33
(UTC+00:00)
Language:

TES - Orbit

View from above orbital plane
View from above orbital plane
View from above satellite
View from above satellite

Ground track
Ground track

The orbit data is extracted from the following two-line orbital elements,

1 26957U 01049A   18201.21970433  .00000858  00000-0  54673-4 0  9994
2 26957  97.6806 306.9531 0040030 100.6891 259.8877 15.10851720918505
Epoch (UTC): 20 July 2018 05:16:22
Eccentricity: 0.0040030
inclination: 97.6806°
perigee height: 506 km
apogee height: 561 km
right ascension of ascending node: 306.9531°
argument of perigee: 100.6891°
revolutions per day: 15.10851720
mean anomaly at epoch: 259.8877°
orbit number at epoch: 91850

The dashed part of the orbit path shows where the satellite is in the earth's shadow,  

DLR